一网星座-0457星 (ONEWEB-0457 )

导读

ONEWEB-0457是英国OneWeb卫星星座的一员,于北京时间2022年2月10日发射入轨,运行在近地轨道,属于低轨宽带通信卫星。OneWeb星座计划打造由超600颗卫星组成的全球卫星互联网网络,ONEWEB-0457的入轨,助力拓展星座覆盖范围,为全球偏远地区、海上航空等场景提供高速低延迟的网络连接服务,推动全球互联基础设施建设。

Basic Information
目录编号:
51647
目录名称:
ONEWEB-0457
国际标识:
2022-012AB
轨道中心:
EARTH
卫星名称:
一网星座-0457星
卫星全名:
一网星座-0457星 (ONEWEB-0457 )
卫星状态:
在轨 (已飞行1675 天)
发射日期:
2022-02-10 UTC
国别 :
英国 (GB)
星等 :
--
This satellite is enrolled in the Space Conjunction Data Service (SCDS) and the current flight risk assessment level is: No High Risk
Orbit Information
数据来源 国际轨道数据 AOE轨道数据
星历时间 2026-09-12T02:10:04+0800
12小时前
查看轨道信息
2026-09-10T06:00:00+0800
2天前
查看轨道信息
半长轴 7599.857km 7599.837km
偏心率 0.0001425 0.0000813
轨道倾角 87.889° 87.890°
近地点辐角 109.834° 113.105°
升交点赤经 19.033° 19.395°
平近点角 250.294° 210.498°
近地点 1220.637km 1221.082km
远地点 1222.803km 1222.318km
周期 109.892分钟 109.892分钟
每日圈数 13.103722 13.103775
Detailed Information
平衡模式:
三轴稳定
覆盖范围:
全球
运营商:
一网卫星公司
运营商所在国:
英国
制造商(研发单位):
一网卫星公司
制造商所在国:
英国
使用方式:
暂无
Satellite Introduction
OneWeb卫星网络由648颗重约125公斤的微型卫星组成,运行在1200公里的轨道上。 每颗卫星都能够提供至少每秒8千兆位的吞吐量,以使用其高吞吐量的Ku频段有效载荷为家庭和移动平台提供互联网接入。该卫星仍在工作。
2D Orbit Map
3D Orbit Map
Orbit Altitude Analysis Chart
Orbit Inclination Analysis Chart
Orbit Comprehensive Analysis Chart
View Comprehensive Chart
Miss Distance Evolution Trend with All Objects
Collision Probability Evolution Trend with All Objects